Rutherfordton, NC

10:14 PM EDT on March 28, 2017 (GMT -0400)
Rutherford County-Marchman

Weather History for KFQD - June, 2014

Change the Weather History Date:

Sunday, June 8, 2014

  Actual Average (KAVL) Record (KAVL)
Temperature  
Mean Temperature 76 °F -  
Max Temperature 83 °F 80 °F 97 °F (1933)
Min Temperature 68 °F 56 °F 39 °F (1977)
Cooling Degree Days 10    
Growing Degree Days 26 (Base 50)    
Moisture  
Dew Point 69 °F    
Average Humidity 86    
Maximum Humidity 99    
Minimum Humidity 60    
Precipitation  
Precipitation 0.06 in - - ()
Sea Level Pressure  
Sea Level Pressure 29.94 in    
Wind  
Wind Speed 6 mph (South)    
Max Wind Speed 14 mph    
Max Gust Speed 21 mph    
Visibility 9 miles    
Events Rain , Thunderstorm    
Averages and records for this station are not official NWS values.
T = Trace of Precipitation, MM = Missing Value Source: NWS Daily Summary

Daily Weather History Graph

Daily Weather History Graph

Search for Another Location

Airport or City:

Trip Planner

Search our weather history database for the weather conditions in past years. The results will help you decide how hot, cold, wet, or windy it might be!

Date:

Astronomy

Jun. 08, 2014 Rise Set
Actual Time 6:12 AM EDT 8:41 PM EDT
Civil Twilight 5:42 AM EDT 9:11 PM EDT
Nautical Twilight 5:05 AM EDT 9:48 PM EDT
Astronomical Twilight 4:25 AM EDT 10:28 PM EDT
Moon 4:07 PM EDT (6/8) 2:54 AM EDT (6/8)
Length of Visible Light 15h 28m
Length of Day
14h 29m
Waxing Gibbous, 77% of the Moon is Illuminated
Jun 8
Waxing Gibbous
Jun 13
Full
Jun 19
Last Quarter
Jun 27
New
Jul 5
First Quarter

Hourly Weather History & Observations

Time (EDT) Temp. Heat Index Dew Point Humidity Pressure Visibility Wind Dir Wind Speed Gust Speed Precip Events Conditions
12:15 AM 71.4 °F - 66.7 °F 85% 30.01 in 10.0 mi Calm Calm - N/A   Overcast
12:35 AM 71.2 °F - 66.7 °F 86% 30.01 in 10.0 mi SSE 4.6 mph - N/A   Overcast
12:55 AM 71.1 °F - 67.1 °F 87% 30.01 in 10.0 mi SSE 4.6 mph - N/A   Overcast
1:15 AM 71.2 °F - 67.1 °F 87% 30.00 in 10.0 mi ESE 8.1 mph - N/A   Overcast
1:35 AM 71.1 °F - 67.6 °F 89% 30.00 in 10.0 mi SSE 5.8 mph - N/A   Overcast
1:55 AM 70.9 °F - 68.0 °F 91% 29.99 in 10.0 mi SSE 6.9 mph - N/A   Overcast
2:15 AM 70.7 °F - 68.2 °F 92% 29.98 in 10.0 mi South 11.5 mph 16.1 mph N/A   Overcast
2:35 AM 70.7 °F - 68.4 °F 92% 29.98 in 10.0 mi South 10.4 mph - N/A   Overcast
2:55 AM 70.3 °F - 68.0 °F 92% 29.97 in 10.0 mi South 6.9 mph 18.4 mph N/A   Overcast
3:15 AM 70.0 °F - 68.0 °F 93% 29.97 in 10.0 mi South 9.2 mph - N/A   Overcast
3:35 AM 70.0 °F - 67.6 °F 92% 29.97 in 10.0 mi SSW 12.7 mph - N/A   Overcast
3:55 AM 69.8 °F - 67.5 °F 92% 29.97 in 10.0 mi South 11.5 mph 16.1 mph N/A   Overcast
4:15 AM 69.8 °F - 67.5 °F 92% 29.97 in 10.0 mi SSW 12.7 mph - N/A   Overcast
4:35 AM 69.8 °F - 67.3 °F 92% 29.97 in 10.0 mi South 13.8 mph 17.3 mph N/A Thunderstorm Overcast
4:55 AM 69.8 °F - 67.1 °F 91% 29.97 in 10.0 mi South 13.8 mph 18.4 mph N/A Rain Light Rain
5:15 AM 69.1 °F - 67.3 °F 94% 29.96 in 5.0 mi South 13.8 mph 18.4 mph N/A Rain , Thunderstorm Rain
5:35 AM 68.5 °F - 67.3 °F 96% 29.96 in 10.0 mi South 10.4 mph - 0.01 in Rain Rain
5:55 AM 68.2 °F - 67.6 °F 98% 29.96 in 5.0 mi SSE 9.2 mph - 0.02 in Rain Light Rain
6:15 AM 68.2 °F - 67.6 °F 98% 29.96 in 7.0 mi South 10.4 mph - N/A   Overcast
6:35 AM 68.2 °F - 67.6 °F 98% 29.97 in 5.0 mi SSW 10.4 mph - N/A   Overcast
6:55 AM 68.4 °F - 68.0 °F 99% 29.96 in 5.0 mi ESE 9.2 mph - N/A   Overcast
7:15 AM 68.5 °F - 68.0 °F 98% 29.97 in 5.0 mi South 6.9 mph - N/A   Overcast
7:35 AM 68.5 °F - 68.2 °F 99% 29.97 in 5.0 mi South 9.2 mph - N/A Rain Light Rain
7:55 AM 68.9 °F - 68.4 °F 98% 29.97 in 3.0 mi SE 8.1 mph - N/A   Drizzle
8:15 AM 68.9 °F - 68.4 °F 98% 29.97 in 4.0 mi ESE 10.4 mph - N/A   Overcast
8:35 AM 69.1 °F - 68.4 °F 98% 29.97 in 5.0 mi ESE 10.4 mph - N/A   Overcast
8:55 AM 69.4 °F - 68.7 °F 98% 29.98 in 5.0 mi South 8.1 mph - N/A Rain Light Rain
9:15 AM 69.8 °F - 68.9 °F 97% 29.97 in 7.0 mi SSE 4.6 mph - N/A   Overcast
9:35 AM 70.7 °F - 69.3 °F 95% 29.96 in 7.0 mi South 9.2 mph - N/A   Overcast
9:55 AM 70.9 °F - 68.9 °F 93% 29.97 in 10.0 mi South 11.5 mph - N/A   Overcast
10:15 AM 71.4 °F - 69.1 °F 92% 29.97 in 10.0 mi SSW 10.4 mph - N/A   Overcast
10:35 AM 72.0 °F - 68.7 °F 89% 29.97 in 10.0 mi SSW 9.2 mph - N/A   Overcast
10:55 AM 72.5 °F - 68.9 °F 88% 29.97 in 10.0 mi SW 5.8 mph - N/A   Overcast
11:15 AM 72.5 °F - 68.9 °F 88% 29.98 in 10.0 mi SW 5.8 mph - N/A   Overcast
11:35 AM 73.6 °F - 68.9 °F 85% 29.97 in 10.0 mi SSW 8.1 mph - N/A   Overcast
11:55 AM 74.1 °F - 69.4 °F 85% 29.97 in 10.0 mi SW 8.1 mph - N/A   Overcast
12:15 PM 74.5 °F - 69.8 °F 85% 29.97 in 10.0 mi Calm Calm - N/A   Overcast
12:35 PM 75.7 °F - 70.2 °F 83% 29.97 in 10.0 mi Calm Calm - N/A   Mostly Cloudy
1:15 PM 78.4 °F - 70.2 °F 76% 29.95 in 10.0 mi SSW 12.7 mph 16.1 mph N/A   Mostly Cloudy
1:35 PM 78.8 °F - 69.8 °F 74% 29.94 in 10.0 mi Calm Calm - N/A   Mostly Cloudy
1:55 PM 79.3 °F - 69.3 °F 71% 29.93 in 10.0 mi SSW 12.7 mph 18.4 mph N/A   Mostly Cloudy
2:15 PM 80.6 °F 83.5 °F 68.9 °F 67% 29.92 in 10.0 mi SW 9.2 mph - N/A   Mostly Cloudy
2:35 PM 81.7 °F 84.5 °F 67.8 °F 63% 29.92 in 10.0 mi WSW 4.6 mph - N/A   Scattered Clouds
2:55 PM 80.8 °F 83.6 °F 68.4 °F 66% 29.91 in 10.0 mi South 5.8 mph 20.7 mph N/A   Scattered Clouds
3:15 PM 81.1 °F 83.9 °F 68.0 °F 64% 29.90 in 10.0 mi South 5.8 mph - N/A   Mostly Cloudy
3:35 PM 82.8 °F 85.5 °F 67.8 °F 60% 29.91 in 10.0 mi South 5.8 mph - N/A   Scattered Clouds
3:55 PM 83.5 °F 86.7 °F 68.2 °F 60% 29.90 in 10.0 mi South 9.2 mph - N/A   Scattered Clouds
4:15 PM 81.7 °F 84.5 °F 68.0 °F 63% 29.89 in 10.0 mi South 8.1 mph 20.7 mph N/A   Mostly Cloudy
4:35 PM 82.4 °F 85.2 °F 67.8 °F 61% 29.89 in 10.0 mi South 8.1 mph 18.4 mph N/A   Scattered Clouds
4:55 PM 80.6 °F 83.1 °F 67.3 °F 64% 29.87 in 10.0 mi South 4.6 mph - N/A   Mostly Cloudy
5:15 PM 79.5 °F - 69.1 °F 70% 29.87 in 10.0 mi Calm Calm - N/A Rain Light Rain
5:35 PM 77.9 °F - 72.3 °F 83% 29.87 in 10.0 mi NNW 3.5 mph - N/A Rain , Thunderstorm Thunderstorms and Rain
5:55 PM 76.3 °F - 70.7 °F 83% 29.88 in 4.0 mi Calm Calm - 0.04 in Rain Light Rain
6:15 PM 78.8 °F - 70.0 °F 74% 29.87 in 10.0 mi Calm Calm - N/A   Scattered Clouds
6:35 PM 79.9 °F - 71.6 °F 76% 29.86 in 10.0 mi Calm Calm - N/A   Clear
6:55 PM 79.7 °F - 71.4 °F 76% 29.87 in 10.0 mi Calm Calm - N/A   Clear
7:15 PM 79.2 °F - 71.2 °F 77% 29.87 in 10.0 mi Calm Calm - N/A   Clear
7:35 PM 79.0 °F - 70.7 °F 76% 29.87 in 10.0 mi Calm Calm - N/A   Clear
7:55 PM 77.4 °F - 70.7 °F 80% 29.87 in 10.0 mi Calm Calm - N/A   Clear
8:15 PM 76.3 °F - 70.7 °F 83% 29.87 in 10.0 mi Calm Calm - N/A   Clear
8:35 PM 74.8 °F - 71.6 °F 90% 29.88 in 10.0 mi Calm Calm - N/A   Clear
8:55 PM 74.7 °F - 71.1 °F 88% 29.89 in 10.0 mi Calm Calm - N/A   Clear
9:15 PM 75.2 °F - 70.7 °F 86% 29.90 in 10.0 mi Calm Calm - N/A   Clear
9:35 PM 71.8 °F - 70.5 °F 96% 29.91 in 10.0 mi ENE 3.5 mph - N/A   Clear
9:55 PM 72.7 °F - 70.5 °F 93% 29.91 in 10.0 mi Calm Calm - N/A   Clear
10:15 PM 72.5 °F - 70.9 °F 95% 29.91 in 10.0 mi Calm Calm - N/A   Clear
10:35 PM 71.2 °F - 69.8 °F 95% 29.92 in 10.0 mi ESE 4.6 mph - N/A   Clear
10:55 PM 71.2 °F - 70.3 °F 97% 29.92 in 10.0 mi Calm Calm - N/A   Scattered Clouds
11:15 PM 71.6 °F - 70.3 °F 96% 29.93 in 10.0 mi Calm Calm - N/A   Scattered Clouds
11:35 PM 71.8 °F - 70.0 °F 94% 29.93 in 10.0 mi East 3.5 mph - N/A   Clear
11:55 PM 71.4 °F - 69.8 °F 95% 29.93 in 10.0 mi Calm Calm - N/A   Clear